Location: St. Louis
(38.6270°N, 90.1994°W)
Time: 01:39:14
(UTC-06:00)

Courier 1B Rocket - Pass Details

Date: 01 December 2021
Orbit: 920 x 1202 km, 28.2° (Epoch: 16 January)

Event Time Altitude Azimuth Distance (km) Brightness Sun altitude
Rises 01:32:41 0° 250° (WSW) 3,549 - -62.3°
Reaches altitude 10° 01:35:32 10° 240° (WSW) 2,602 - -61.8°
Maximum altitude 01:40:57 32° 179° (S) 1,529 - -60.9°
Drops below altitude 10° 01:46:30 10° 118° (ESE) 2,661 - -59.9°
Sets 01:49:27 0° 109° (ESE) 3,641 - -59.4°
